RH
85 65 74 76 84 84 73 69 68 58 52 48 58 60 59 56 55 60 63 65 55 63
65 56 66 68 67 64 63 64 63 56 51 51 47 56 63 56 55 64 63 59 57 55
64 62 59 66 65 69 66 62 56 54 46 54 48 53 69 65 66 69 73 73 61 53
66 64 62 60 61 59 54 46 45 46 41 52 56 51 61 67 72 77 79 86 71 57
71 66 69 58 50 48 38 35 39 42 41 45 54 57 54 56 66 72 73 79 73 59
70 69 63 47 38 37 36 35 39 42 40 43 52 54 54 54 59 70 74 62 59 59
74 67 51 41 40 41 35 32 34 40 39 45 48 53 57 63 59 67 65 74 61 57
60 49 45 44 42 39 34 33 30 29 30 32 34 42 55 57 67 62 76 78 76 66
59 55 50 48 47 43 38 31 26 27 29 26 34 40 41 53 54 57 62 81 94 71
57 55 51 52 50 45 40 30 28 30 31 31 29 30 42 46 52 50 54 62 72 84
61 59 59 55 50 45 42 37 32 31 30 29 32 32 32 43 52 60 60 61 64 74
67 60 55 52 52 50 51 41 37 35 35 31 27 30 32 29 43 50 56 56 75 70
49 57 58 54 52 51 44 39 35 33 31 29 29 27 26 31 32 42 51 59 58 64
38 36 35 35 35 38 39 36 33 32 30 28 25 23 26 27 32 35 41 55 61 66